| time (UTC) | temp C | wind direction | speed KPH | gust KPH | rain 1hr cm | rain 24hr cm | rain mn cm | humidity % | barometer mb |
| 20260503213101 | 12 | 257 | 4.8 | 17.7 | 0.00 | 0.00 | 0.00 | 34 | 1000.3 |
| 20260503211550 | 13 | 271 | 8.0 | 16.1 | 0.00 | 0.00 | 0.00 | 32 | 1000.5 |
| 20260503210101 | 12 | 258 | 6.4 | 16.1 | 0.00 | 0.00 | 0.00 | 34 | 1000.4 |
| 20260503204546 | 12 | 298 | 6.4 | 14.5 | 0.00 | 0.00 | 0.00 | 34 | 1000.6 |
| 20260503203051 | 12 | 278 | 6.4 | 20.9 | 0.00 | 0.00 | 0.00 | 35 | 1000.6 |
| 20260503201543 | 12 | 275 | 8.0 | 17.7 | 0.00 | 0.00 | 0.00 | 36 | 1000.7 |
| 20260503200047 | 12 | 296 | 8.0 | 17.7 | 0.00 | 0.00 | 0.00 | 36 | 1000.7 |
| 20260503194542 | 12 | 286 | 6.4 | 17.7 | 0.00 | 0.00 | 0.00 | 37 | 1000.7 |
| 20260503193043 | 13 | 294 | 3.2 | 19.3 | 0.00 | 0.00 | 0.00 | 31 | 1000.7 |
| 20260503191535 | 13 | 319 | 6.4 | 19.3 | 0.00 | 0.00 | 0.00 | 32 | 1000.9 |
| 20260503190034 | 13 | 296 | 8.0 | 16.1 | 0.00 | 0.00 | 0.00 | 32 | 1000.9 |
| 20260503184531 | 13 | 250 | 6.4 | 14.5 | 0.00 | 0.00 | 0.00 | 33 | 1000.8 |
| 20260503183042 | 13 | 286 | 4.8 | 19.3 | 0.00 | 0.00 | 0.00 | 33 | 1001.1 |
| 20260503181526 | 12 | 298 | 4.8 | 16.1 | 0.00 | 0.00 | 0.00 | 35 | 1001.2 |
| 20260503180026 | 12 | 296 | 6.4 | 11.3 | 0.00 | 0.00 | 0.00 | 36 | 1001.4 |
| 20260503174522 | 12 | 306 | 3.2 | 20.9 | 0.00 | 0.00 | 0.00 | 34 | 1001.6 |
| 20260503173021 | 12 | 276 | 6.4 | 14.5 | 0.00 | 0.00 | 0.00 | 37 | 1001.7 |
| 20260503171519 | 12 | 55 | 4.8 | 14.5 | 0.00 | 0.00 | 0.00 | 36 | 1001.9 |
| 20260503081513 | 2 | 5 | 0.0 | 1.6 | 0.00 | 0.00 | 0.00 | 78 | 1005.1 |
| 20260503071508 | 3 | 5 | 0.0 | 0.0 | 0.00 | 0.00 | 0.00 | 74 | 1005.7 |
| 20260503054555 | 5 | 5 | 0.0 | 0.0 | 0.00 | 0.00 | 0.00 | 68 | 1006.8 |
| 20260503053048 | 5 | 5 | 0.0 | 0.0 | 0.00 | 0.00 | 0.00 | 69 | 1007.0 |
| 20260503051546 | 5 | 5 | 0.0 | 0.0 | 0.00 | 0.00 | 0.00 | 68 | 1007.3 |
| 20260503050045 | 5 | 5 | 0.0 | 0.0 | 0.00 | 0.00 | 0.00 | 68 | 1007.5 |
| 20260503044548 | 5 | 5 | 0.0 | 0.0 | 0.00 | 0.00 | 0.00 | 68 | 1007.6 |
| 20260503043042 | 5 | 5 | 0.0 | 0.0 | 0.00 | 0.00 | 0.00 | 65 | 1007.8 |
| 20260503041543 | 6 | 5 | 0.0 | 0.0 | 0.00 | 0.00 | 0.00 | 62 | 1007.8 |
| 20260503040041 | 6 | 263 | 0.0 | 0.0 | 0.00 | 0.00 | 0.00 | 60 | 1007.8 |
| 20260503034539 | 6 | 263 | 0.0 | 0.0 | 0.00 | 0.00 | 0.00 | 59 | 1007.8 |
| 20260503033032 | 6 | 263 | 0.0 | 0.0 | 0.00 | 0.00 | 0.00 | 58 | 1007.9 |
| 20260503031531 | 6 | 263 | 0.0 | 0.0 | 0.00 | 0.00 | 0.00 | 57 | 1008.0 |
| 20260503030030 | 5 | 263 | 0.0 | 0.0 | 0.00 | 0.00 | 0.00 | 63 | 1008.2 |
| 20260503024530 | 5 | 263 | 0.0 | 0.0 | 0.00 | 0.00 | 0.00 | 64 | 1008.2 |
| 20260503023029 | 5 | 263 | 0.0 | 0.0 | 0.00 | 0.00 | 0.00 | 64 | 1008.5 |
| 20260503021529 | 6 | 263 | 0.0 | 0.0 | 0.00 | 0.00 | 0.00 | 65 | 1008.4 |
| 20260503020029 | 6 | 263 | 0.0 | 0.0 | 0.00 | 0.00 | 0.00 | 59 | 1008.2 |
| 20260503014538 | 6 | 263 | 0.0 | 0.0 | 0.00 | 0.00 | 0.00 | 58 | 1008.1 |
| 20260503013028 | 7 | 263 | 0.0 | 0.0 | 0.00 | 0.00 | 0.00 | 55 | 1008.1 |
| 20260503011526 | 8 | 263 | 0.0 | 0.0 | 0.00 | 0.00 | 0.00 | 56 | 1008.3 |
| 20260503010026 | 8 | 263 | 0.0 | 0.0 | 0.00 | 0.00 | 0.00 | 45 | 1008.4 |
| 20260503004525 | 9 | 263 | 0.0 | 0.0 | 0.00 | 0.00 | 0.00 | 45 | 1008.5 |
| 20260503003023 | 10 | 263 | 0.0 | 1.6 | 0.00 | 0.00 | 0.00 | 44 | 1008.7 |
| 20260503001522 | 10 | 263 | 0.0 | 3.2 | 0.00 | 0.00 | 0.00 | 41 | 1008.8 |
| 20260503000020 | 10 | 261 | 0.0 | 4.8 | 0.00 | 0.00 | 0.00 | 41 | 1009.0 |
| 20260502234519 | 11 | 284 | 0.0 | 6.4 | 0.00 | 0.00 | 0.00 | 38 | 1009.1 |
| 20260502233018 | 10 | 285 | 0.0 | 3.2 | 0.00 | 0.00 | 0.00 | 42 | 1009.2 |
| 20260502231516 | 11 | 285 | 0.0 | 4.8 | 0.00 | 0.00 | 0.00 | 42 | 1009.3 |
| 20260502230017 | 11 | 281 | 0.0 | 8.0 | 0.00 | 0.00 | 0.00 | 38 | 1009.3 |
| 20260502224515 | 11 | 288 | 1.6 | 14.5 | 0.00 | 0.00 | 0.00 | 39 | 1009.3 |
| 20260502223017 | 11 | 288 | 3.2 | 8.0 | 0.00 | 0.00 | 0.00 | 42 | 1009.4 |
| 20260502221511 | 12 | 285 | 1.6 | 12.9 | 0.00 | 0.00 | 0.00 | 36 | 1009.7 |
| 20260502220010 | 12 | 289 | 3.2 | 8.0 | 0.00 | 0.00 | 0.00 | 38 | 1009.9 |
| 20260502214508 | 12 | 293 | 1.6 | 8.0 | 0.00 | 0.00 | 0.00 | 37 | 1010.0 |